STARLINK-3700, 51956

Orbit data source: Space-Track

STARLINK-3700, 51956 is a payload satellite owned by SpaceX/Seattle (US) in LEO that was launched on Wed, 09 Mar 2022 UTC via an FALCON 9 launch vehicle from the Air Force Eastern Test Range (AFETR). Payload-class satellites include a variety of spacecraft equipped with specific instruments for various scientific and technological missions. These include communications satellites like Starlink; space stations such as the ISS; scientific satellites like the Hubble; Earth observation satellites from companies like Planet Labs, Umbra, and HawkEye 360; GPS; miniature CubeSats for education and research; and military/defense satellites.

Loading next visibility...
Identifier
51956, 2022-025A
Orbit
LEO
Country
Flag of USUS
Related business
Manufacturer
SpaceX/Seattle
Mission
Operational Commercial Communications
Bus & Motor
STARLINK, Unknown motor
Mass
297 kg wet, ~275 kg dry
Launch date (UTC)
2022-03-09 (4 years ago)
Launch vehicle
FALCON 9
Launch site
Air Force Eastern Test Range (AFETR)
Object type
Payload
Rocket body
Debris
Shape & HBR
Box + 1 Pan, 10.1 m
Radar Cross Section
13.562 m², Large (>1 m²)

Expand to show TLE details & history
Last TLE update: 12 hours ago

TLE from 12 hours ago
0 STARLINK-3700
1 51956U 22025A   25346.87663708 -.00000224  00000-0  38696-5 0  9998
2 51956  53.0571  51.3414 0001451  92.3053 267.8102 15.06396848207960
Epoch: 2025-12-12T21:02Z
TLE epoch observation values (Epoch: 2025-12-12T21:02:21.443Z)
Latitude
-0.00005°
Longitude
13.94005°
Altitude
548.139 km
Speed
7.589 km/s
True Right ascension
03h 25m 21s
True Declination
0° 00' 00"
Sunlit
Object was in full shadow at epoch
Visualization orbit readout
Latitude
Unknown
Longitude
Unknown
Altitude
Unknown
Speed
Unknown
Apparent Right ascension
Unknown
Apparent Declination
Unknown
Sunlit
N/A
Visualization observer readout
Local Sidereal Time
07:35:01
Azimuth
Unknown
Elevation
Unknown
Doppler factor
Unknown
Orbital elements
Apogee altitude
548.496 km
Perigee altitude
546.487 km
Semi-major axis
6,925.629 km
Eccentricity
0.00015
Inclination
53.0571°
RAAN
51.3414°
Arg. of periapsis
92.3053°
True anomaly
267.79359°
Mean anomaly
267.8102°
Eccentric anomaly
267.80189°
Mean motion
3.76578 °/min
Orbital period
95.6 mins
BSTAR
0.0000038696
Loading maneuver chart data...
Computing Atmospheric mass density...
Loading historical data...
Loading historical data...
Loading historical data...
Loading historical data...
Loading historical data...
Loading historical data...
Loading historical data...

Documentation

Showing up to 5 results
|